• Processing (Info)

  • MPEC 2007-V18 : 2007 VC3

    The following Minor Planet Electronic Circular may be linked-to from your own Web pages, but must not otherwise be redistributed electronically.

    A form allowing access to any MPEC is at the bottom of this page.


    Read MPEC 2007-V17 Read MPEC 2007-V19


    M.P.E.C. 2007-V18                                Issued 2007 Nov. 4, 18:33 UT
    
         The Minor Planet Electronic Circulars contain information on unusual
             minor planets and routine data on comets.  They are published
       on behalf of Commission 20 of the International Astronomical Union by the
              Minor Planet Center, Smithsonian Astrophysical Observatory,
                              Cambridge, MA 02138, U.S.A.
    
                 Prepared using the Tamkin Foundation Computer Network
    
                                  MPC@CFA.HARVARD.EDU
              URL http://www.cfa.harvard.edu/iau/mpc.html  ISSN 1523-6714
    
                                       2007 VC3
    
    Observations:
         K07V03C* C2007 11 02.26874 02 39 55.65 -09 17 40.1          19.4 V EV018703
         K07V03C  C2007 11 02.27523 02 39 54.97 -09 18 13.3          19.4 V EV018703
         K07V03C  C2007 11 02.28174 02 39 54.28 -09 18 47.2          19.5 V EV018703
         K07V03C  C2007 11 02.28824 02 39 53.49 -09 19 19.8          19.7 V EV018703
         K07V03C  C2007 11 02.32788 02 39 49.16 -09 22 40.9          19.4 V EV018703
         K07V03C  C2007 11 02.33295 02 39 48.74 -09 23 04.3          19.3 V EV018703
         K07V03C  C2007 11 02.33801 02 39 48.20 -09 23 28.7          20.1 V EV018703
         K07V03C  C2007 11 02.34307 02 39 47.60 -09 23 55.6          19.4 V EV018703
         K07V03C  C2007 11 02.94468 02 39 25.57 -10 10 24.7          19.4 R EV018176
         K07V03C  C2007 11 02.94554 02 39 25.53 -10 10 28.8          19.1 R EV018176
         K07V03C  C2007 11 02.95553 02 39 24.58 -10 11 10.6          19.5 R EV018176
         K07V03C  C2007 11 02.95639 02 39 24.51 -10 11 14.3          19.3 R EV018176
         K07V03C  C2007 11 03.31598 02 39 07.92 -10 35 18.3          19.8 R EV018651
         K07V03C  C2007 11 03.31708 02 39 07.87 -10 35 22.7          19.8 R EV018651
         K07V03C  C2007 11 03.31817 02 39 07.72 -10 35 26.8          19.8 R EV018651
         K07V03C  C2007 11 03.31974 02 39 07.59 -10 35 35.1          20.2 V EV018G96
         K07V03C  C2007 11 03.32627 02 39 07.02 -10 36 00.0          19.7 V EV018G96
         K07V03C  C2007 11 03.33281 02 39 06.40 -10 36 25.3          19.9 V EV018G96
         K07V03C  C2007 11 03.33937 02 39 05.79 -10 36 50.5          19.6 V EV018G96
         K07V03C  C2007 11 04.42958 02 38 25.08 -11 38 14.1          20.1 V EV018G96
         K07V03C  C2007 11 04.43013 02 38 25.08 -11 38 16.0          20.3 V EV018G96
         K07V03C  C2007 11 04.43066 02 38 25.04 -11 38 17.5          20.3 V EV018G96
         K07V03C  C2007 11 04.43120 02 38 25.00 -11 38 18.7          20.6 V EV018G96
    
    Observer details:
    176 Observatori Astronomic de Consell.  Observers A. Lopez, R. Pacheco.
        0.41-m f/4 reflector + CCD.
    651 Grasslands Observatory, Tucson.  Observer J. E. McGaha.  0.62-m f/5.1
        Newtonian reflector + CCD.
    703 Catalina Sky Survey.  Observer E. C. Beshore.  Measurers E. C. Beshore,
        A. Boattini, G. J. Garradd, A. R. Gibbs, A. D. Grauer, R. E. Hill,
        R. A. Kowalski, S. M. Larson, R. H. McNaught.  0.68-m Schmidt + CCD.
    G96 Mt. Lemmon Survey.  Observer A. Boattini.  Measurers E. C. Beshore,
        A. Boattini, G. J. Garradd, A. R. Gibbs, A. D. Grauer, R. E. Hill,
        R. A. Kowalski, S. M. Larson, R. H. McNaught.  1.5-m reflector + CCD.
    
    Orbital elements:
    2007 VC3                                                 Earth MOID = 0.0089 AU
    Epoch 2007 Oct. 27.0 TT = JDT 2454400.5                 MPC
    M  52.13939              (2000.0)            P               Q
    n   0.81624150     Peri.   91.06299     +0.56156249     +0.81807625
    a   1.1339405      Node   214.07004     -0.81955358     +0.52927405
    e   0.3225661      Incl.   12.79781     -0.11392757     +0.22498940
    P   1.21           H   24.8           G   0.15           U   8
    Residuals in seconds of arc
    071102 703  0.1-  0.1+    071102 176  0.2+  0.2-    071103 G96  0.5+  0.1-
    071102 703  0.2+  0.1+    071102 176  0.7+  0.7-    071103 G96  0.1+  0.3-
    071102 703  0.4+  0.5-    071102 176  0.2+  0.3+    071103 G96  0.2-  0.4-
    071102 703  0.8-  0.0     071102 176  0.3+  0.3+    071104 G96  0.7-  0.2+
    071102 703  1.5-  1.3-    071103 651  0.4+  0.5+    071104 G96  0.2-  0.2-
    071102 703  0.3+  0.6+    071103 651  1.2+  0.3+    071104 G96  0.3-  0.1-
    071102 703  0.3+  1.4+    071103 651  0.5+  0.4+    071104 G96  0.4-  0.2+
    071102 703  0.7-  0.3-    071103 G96  0.1+  0.3-
    
    Ephemeris:
    2007 VC3                 a,e,i = 1.13, 0.32, 13                  q = 0.7682
    Date    TT    R. A. (2000) Decl.     Delta      r     Elong.  Phase     V
    2007 10 27    03 02.35   +31 51.4    0.0126   1.006   156.4    23.3    16.4
    2007 10 29    02 46.98   +04 27.5    0.0236   1.017   167.6    12.2    17.4
    2007 10 31    02 42.38   -04 38.0    0.0366   1.028   160.6    18.7    18.6
    2007 11 02    02 40.11   -08 52.0    0.0501   1.038   156.4    22.5    19.5
    2007 11 04    02 38.74   -11 14.4    0.0638   1.049   153.6    24.9    20.1
    2007 11 06    02 37.82   -12 42.5    0.0777   1.060   151.5    26.5    20.6
    2007 11 08    02 37.17   -13 39.7    0.0917   1.071   149.8    27.7    21.0
    2007 11 10    02 36.72   -14 17.6    0.106    1.082   148.3    28.7    21.4
    2007 11 12    02 36.43   -14 42.2    0.120    1.093   147.0    29.6    21.7
    2007 11 14    02 36.27   -14 57.2    0.135    1.103   145.7    30.4    22.0
    2007 11 16    02 36.24   -15 05.0    0.150    1.114   144.4    31.1    22.2
    
    Gareth V. Williams           (C) Copyright 2007 MPC           M.P.E.C. 2007-V18
    

    Read MPEC 2007-V17 Read MPEC 2007-V19


    MPEC number:

    Enter an MPEC number in one of the following forms:

    • 1997-B01 (the full form)
    • J97B01 (the packed version of the full form)
    • B01 (the abbreviated form)